This is the latest recevied weather packets stored in our database for station/object WC0AA-WX. If no packets are shown the sender has not sent any weather packets the latest 10 day(s).
| Time | Temp. | Humidity | Pressure | Rain* | Wind** | Luminosity | Snow |
|---|---|---|---|---|---|---|---|
| 1787866026 | 31.67° C | 47% | 1019.2 hPa | 0 mm | - | - | - |
| 1787865426 | 31.67° C | 47% | 1019.2 hPa | 0 mm | - | - | - |
| 1787864826 | 30.56° C | 49% | 1019.3 hPa | 0 mm | - | - | - |
| 1787840041 | 21.67° C | 83% | 1020.5 hPa | 0 mm | - | - | - |
| 1787839442 | 21.67° C | 84% | 1020.3 hPa | 0 mm | - | - | - |
| 1787838812 | 21.67° C | 84% | 1020.2 hPa | 0 mm | - | - | - |
| 1787838211 | 20.56° C | 87% | 1020.2 hPa | 0 mm | - | - | - |
| 1787837611 | 20.56° C | 87% | 1020.1 hPa | 0 mm | - | - | - |
| 1787837011 | 20° C | 88% | 1020.1 hPa | 0 mm | - | - | - |
| 1787836411 | 19.44° C | 89% | 1020 hPa | 0 mm | - | - | - |
| 1787835812 | 19.44° C | 91% | 1020.1 hPa | 0 mm | - | - | - |
| 1787835216 | 17.78° C | 94% | 1020.1 hPa | 0 mm | - | - | - |
| 1787834612 | 17.22° C | 97% | 1019.9 hPa | 0 mm | - | - | - |
| 1787834013 | 16.11° C | 100% | 1019.7 hPa | 0 mm | - | - | - |
| 1787833380 | 15.56° C | 100% | 1019.7 hPa | 0 mm | - | - | - |
| 1787832780 | 15° C | 100% | 1019.7 hPa | 0 mm | - | - | - |
| 1787832180 | 15° C | 100% | 1019.4 hPa | 0 mm | - | - | - |
| 1787831580 | 14.44° C | 100% | 1019.2 hPa | 0 mm | - | - | - |
| 1787830979 | 15° C | 100% | 1019 hPa | 0 mm | - | - | - |
| 1787830350 | 15° C | 100% | 1018.9 hPa | 0 mm | - | - | - |
| 1787829751 | 15.56° C | 100% | 1018.9 hPa | 0 mm | - | - | - |
| 1787829149 | 15.56° C | 100% | 1018.8 hPa | 0 mm | - | - | - |
| 1787828551 | 15.56° C | 100% | 1018.7 hPa | 0 mm | - | - | - |
| 1787827950 | 16.11° C | 100% | 1018.5 hPa | 0 mm | - | - | - |
| 1787827349 | 16.11° C | 100% | 1018.4 hPa | 0 mm | - | - | - |
* Rain latest hour (hover to see other rain measurements)
** Current wind speed in m/s (hover to see current wind gust speed)